,,,PA_Meas_PMT16A,,PR_Meas_QMR101_102,,RH_Meas_QMH101,,SR_Meas_QMS101,,TA_Meas_QMH101,,GenWind,,GenWind,
date,time,status,PA,status,PR,status,RH,status,SR,status,TA,status,DirAvg,status,SpdAvg,
2011-08-31, 00:00:04,VALID,1001.04,VALID,0,VALID,64.6687,VALID,0,VALID,27.0591,VALID,173,VALID,6.52383,
2011-08-31, 00:01:04,VALID,1001.08,VALID,0,VALID,64.8518,VALID,0,VALID,27.0787,VALID,174,VALID,5.05898,
2011-08-31, 00:02:04,VALID,1001.08,VALID,0,VALID,64.8136,VALID,0,VALID,27.0787,VALID,185,VALID,5.84727,
2011-08-31, 00:03:04,VALID,1001.05,VALID,0,VALID,64.8975,VALID,0,VALID,27.0787,VALID,179,VALID,4.89414,
2011-08-31, 00:04:04,VALID,1001.03,VALID,0,VALID,64.8975,VALID,0,VALID,27.0591,VALID,176,VALID,4.78125,
2011-08-31, 00:05:04,VALID,1001.04,VALID,0,VALID,65.073,VALID,0,VALID,27.0591,VALID,189,VALID,3.70937,
2011-08-31, 00:06:04,VALID,1001.01,VALID,0,VALID,65.1493,VALID,0,VALID,27.0375,VALID,184,VALID,4.84102,
2011-08-31, 00:07:04,VALID,1001.05,VALID,0,VALID,65.1264,VALID,0,VALID,27.018,VALID,200,VALID,3.10313,
2011-08-31, 00:08:04,VALID,1001.02,VALID,0,VALID,64.8441,VALID,0,VALID,26.9985,VALID,174,VALID,4.66719,
2011-08-31, 00:09:04,VALID,1001.01,VALID,0,VALID,64.661,VALID,0,VALID,27.018,VALID,183,VALID,4.65352,
2011-08-31, 00:10:04,VALID,1001.01,VALID,0,VALID,64.6992,VALID,0,VALID,27.0396,VALID,192,VALID,3.83672,
2011-08-31, 00:11:04,VALID,1001,VALID,0,VALID,64.5542,VALID,0,VALID,27.018,VALID,181,VALID,4.54883,
2011-08-31, 00:12:04,VALID,1001.03,VALID,0,VALID,64.7831,VALID,0,VALID,27.018,VALID,186,VALID,3.54648,
2011-08-31, 00:13:04,VALID,1001.02,VALID,0,VALID,64.6839,VALID,0,VALID,27.0375,VALID,198,VALID,3.28555,
2011-08-31, 00:14:04,VALID,1001.03,VALID,0,VALID,64.4321,VALID,0,VALID,27.0375,VALID,172,VALID,3.75312,
2011-08-31, 00:15:04,VALID,1000.97,VALID,0,VALID,64.5008,VALID,0,VALID,27.0591,VALID,192,VALID,4.01133,
2011-08-31, 00:16:04,VALID,1000.96,VALID,0,VALID,63.6768,VALID,0,VALID,27.0591,VALID,202,VALID,5.68125,
2011-08-31, 00:17:04,VALID,1000.97,VALID,0,VALID,63.5853,VALID,0,VALID,27.1373,VALID,185,VALID,4.44766,
2011-08-31, 00:18:04,VALID,1000.97,VALID,0,VALID,63.5776,VALID,0,VALID,27.1157,VALID,205,VALID,3.95508,
2011-08-31, 00:19:04,VALID,1000.94,VALID,0,VALID,63.219,VALID,0,VALID,27.1373,VALID,179,VALID,4.69531,
2011-08-31, 00:20:04,VALID,1000.97,VALID,0,VALID,63.8523,VALID,0,VALID,27.1373,VALID,184,VALID,3.25508,
2011-08-31, 00:21:04,VALID,1001,VALID,0,VALID,63.8141,VALID,0,VALID,27.1177,VALID,175,VALID,3.67109,
2011-08-31, 00:22:04,VALID,1000.93,VALID,0,VALID,63.7226,VALID,0,VALID,27.0787,VALID,172,VALID,3.67891,
2011-08-31, 00:23:04,VALID,1000.9,VALID,0,VALID,63.0283,VALID,0,VALID,27.0982,VALID,181,VALID,5.04453,
2011-08-31, 00:24:04,VALID,1000.96,VALID,0,VALID,62.9062,VALID,0,VALID,27.1763,VALID,189,VALID,5.09375,
2011-08-31, 00:25:04,VALID,1000.87,VALID,0,VALID,62.6087,VALID,0,VALID,27.2154,VALID,175,VALID,3.75195,
2011-08-31, 00:26:04,VALID,1000.88,VALID,0,VALID,62.7155,VALID,0,VALID,27.2154,VALID,188,VALID,3.60508,
2011-08-31, 00:27:04,VALID,1000.9,VALID,0,VALID,62.8452,VALID,0,VALID,27.1959,VALID,180,VALID,3.21094,
2011-08-31, 00:28:04,VALID,1000.9,VALID,0,VALID,63.1809,VALID,0,VALID,27.1373,VALID,192,VALID,2.74336,
2011-08-31, 00:29:04,VALID,1000.88,VALID,0,VALID,63.5166,VALID,0,VALID,27.0961,VALID,184,VALID,4.16328,
2011-08-31, 00:30:04,VALID,1000.89,VALID,0,VALID,63.3716,VALID,0,VALID,27.0787,VALID,174,VALID,4.73438,
2011-08-31, 00:31:04,VALID,1000.88,VALID,0,VALID,63.509,VALID,0,VALID,27.018,VALID,166,VALID,4.18711,
2011-08-31, 00:32:04,VALID,1000.88,VALID,0,VALID,63.6005,VALID,0,VALID,27.0396,VALID,170,VALID,4.07617,
2011-08-31, 00:33:04,VALID,1000.83,VALID,0,VALID,63.9973,VALID,0,VALID,26.981,VALID,147,VALID,2.48711,
2011-08-31, 00:34:04,VALID,1000.85,VALID,0,VALID,64.3177,VALID,0,VALID,26.9224,VALID,193,VALID,2.41445,
2011-08-31, 00:35:04,VALID,1000.82,VALID,0,VALID,64.5161,VALID,0,VALID,26.9029,VALID,181,VALID,2.30625,
2011-08-31, 00:36:04,VALID,1000.83,VALID,0,VALID,64.2567,VALID,0,VALID,26.9029,VALID,176,VALID,2.29023,
2011-08-31, 00:37:04,VALID,1000.79,VALID,0,VALID,65.1417,VALID,0,VALID,26.8443,VALID,176,VALID,3.68086,
2011-08-31, 00:38:04,VALID,1000.81,VALID,0,VALID,65.8665,VALID,0,VALID,26.7466,VALID,168,VALID,2.69375,
2011-08-31, 00:39:04,VALID,1000.74,VALID,0,VALID,64.8594,VALID,0,VALID,26.7035,VALID,167,VALID,2.9457,
2011-08-31, 00:40:04,VALID,1000.73,VALID,0,VALID,64.6229,VALID,0.112286,VALID,26.7836,VALID,187,VALID,2.79609,
2011-08-31, 00:41:04,VALID,1000.72,VALID,0,VALID,64.8594,VALID,0,VALID,26.8032,VALID,185,VALID,2.80156,
2011-08-31, 00:42:04,VALID,1000.69,VALID,0,VALID,65.2867,VALID,0,VALID,26.7621,VALID,171,VALID,2.06992,
2011-08-31, 00:43:04,VALID,1000.67,VALID,0,VALID,64.6152,VALID,0.112286,VALID,26.7836,VALID,190,VALID,2.20195,
2011-08-31, 00:44:04,VALID,1000.66,VALID,0,VALID,64.6687,VALID,0.112286,VALID,26.8227,VALID,201,VALID,1.85703,
2011-08-31, 00:45:04,VALID,1000.62,VALID,0,VALID,64.7373,VALID,0.112286,VALID,26.7621,VALID,244,VALID,1.96055,
2011-08-31, 00:46:04,VALID,1000.62,VALID,0,VALID,64.8823,VALID,0,VALID,26.7621,VALID,206,VALID,2.31992,
2011-08-31, 00:47:04,VALID,1000.6,VALID,0,VALID,65.1188,VALID,0,VALID,26.7251,VALID,222,VALID,2.11953,
2011-08-31, 00:48:04,VALID,1000.59,VALID,0,VALID,65.63,VALID,0,VALID,26.686,VALID,201,VALID,1.9043,
2011-08-31, 00:49:04,VALID,1000.55,VALID,0,VALID,65.8207,VALID,0,VALID,26.5863,VALID,204,VALID,1.81094,
2011-08-31, 00:50:04,VALID,1000.57,VALID,0,VALID,66.1412,VALID,0,VALID,26.5884,VALID,221,VALID,2.8293,
2011-08-31, 00:51:04,VALID,1000.55,VALID,0,VALID,65.981,VALID,0.112286,VALID,26.5473,VALID,213,VALID,2.34336,
2011-08-31, 00:52:04,VALID,1000.51,VALID,0,VALID,66.3701,VALID,0.112286,VALID,26.5298,VALID,221,VALID,2.08516,
2011-08-31, 00:53:04,VALID,1000.5,VALID,0,VALID,66.3853,VALID,0,VALID,26.4907,VALID,215,VALID,1.35508,
2011-08-31, 00:54:04,VALID,1000.49,VALID,0,VALID,66.454,VALID,0,VALID,26.4712,VALID,235,VALID,2.83984,
2011-08-31, 00:55:04,VALID,1000.46,VALID,0,VALID,66.3853,VALID,0,VALID,26.5123,VALID,242,VALID,1.99023,
2011-08-31, 00:56:04,VALID,1000.46,VALID,0,VALID,66.5227,VALID,0,VALID,26.5123,VALID,225,VALID,2.01563,
2011-08-31, 00:57:04,VALID,1000.41,VALID,0,VALID,67.072,VALID,0,VALID,26.4517,VALID,248,VALID,1.7457,
2011-08-31, 00:58:04,VALID,1000.39,VALID,0,VALID,66.8584,VALID,0,VALID,26.4321,VALID,225,VALID,1.93984,
2011-08-31, 00:59:04,VALID,1000.37,VALID,0,VALID,67.3161,VALID,0,VALID,26.3951,VALID,233,VALID,2.19766,
2011-08-31, 01:00:04,VALID,1000.36,VALID,0,VALID,67.3467,VALID,0,VALID,26.354,VALID,222,VALID,2.66641,
2011-08-31, 01:01:04,VALID,1000.31,VALID,0,VALID,67.0949,VALID,0,VALID,26.354,VALID,233,VALID,2.43984,
2011-08-31, 01:02:04,VALID,1000.27,VALID,0,VALID,66.8431,VALID,0,VALID,26.3736,VALID,226,VALID,3.36133,
2011-08-31, 01:03:04,VALID,1000.25,VALID,0,VALID,67.2475,VALID,0,VALID,26.3931,VALID,235,VALID,2.27148,
2011-08-31, 01:04:04,VALID,1000.22,VALID,0,VALID,67.0644,VALID,0,VALID,26.3736,VALID,226,VALID,2.59609,
2011-08-31, 01:05:04,VALID,1000.19,VALID,0,VALID,67.3467,VALID,0,VALID,26.354,VALID,245,VALID,2.55938,
2011-08-31, 01:06:05,VALID,1000.2,VALID,0,VALID,67.4077,VALID,0,VALID,26.315,VALID,214,VALID,1.77578,
2011-08-31, 01:07:05,VALID,1000.18,VALID,0,VALID,67.5527,VALID,0,VALID,26.315,VALID,205,VALID,3.21953,
2011-08-31, 01:08:05,VALID,1000.2,VALID,0,VALID,67.8044,VALID,0,VALID,26.2954,VALID,206,VALID,1.74063,
2011-08-31, 01:09:05,VALID,1000.17,VALID,0,VALID,67.8502,VALID,0,VALID,26.2759,VALID,209,VALID,2.39687,
2011-08-31, 01:10:05,VALID,1000.19,VALID,0,VALID,67.9112,VALID,0,VALID,26.2954,VALID,203,VALID,2.02773,
2011-08-31, 01:11:05,VALID,1000.15,VALID,0,VALID,67.7663,VALID,0,VALID,26.2564,VALID,214,VALID,1.63984,
2011-08-31, 01:12:05,VALID,1000.11,VALID,0,VALID,67.0872,VALID,0,VALID,26.2954,VALID,177,VALID,4.27969,
2011-08-31, 01:13:05,VALID,1000.14,VALID,0,VALID,67.0644,VALID,0,VALID,26.3931,VALID,208,VALID,2.94727,
2011-08-31, 01:14:05,VALID,1000.1,VALID,0,VALID,66.5608,VALID,0,VALID,26.4321,VALID,197,VALID,3.04102,
2011-08-31, 01:15:05,VALID,1000.11,VALID,0,VALID,66.599,VALID,0,VALID,26.4517,VALID,208,VALID,1.85352,
2011-08-31, 01:16:05,VALID,1000.11,VALID,0,VALID,66.5608,VALID,0,VALID,26.4517,VALID,204,VALID,2.23711,
2011-08-31, 01:17:05,VALID,1000.11,VALID,0,VALID,66.5913,VALID,0,VALID,26.4712,VALID,203,VALID,1.80586,
2011-08-31, 01:18:05,VALID,1000.08,VALID,0,VALID,66.6905,VALID,0,VALID,26.4517,VALID,244,VALID,2.01641,
2011-08-31, 01:19:05,VALID,1000.05,VALID,0,VALID,67.1559,VALID,0,VALID,26.4126,VALID,228,VALID,1.21641,
2011-08-31, 01:20:05,VALID,999.975,VALID,0,VALID,66.6752,VALID,0,VALID,26.354,VALID,212,VALID,2.68438,
2011-08-31, 01:21:05,VALID,1000.06,VALID,0,VALID,66.866,VALID,0,VALID,26.4732,VALID,187,VALID,2.11523,
2011-08-31, 01:22:05,VALID,1000.03,VALID,0,VALID,66.9728,VALID,0,VALID,26.4106,VALID,189,VALID,3.16172,
2011-08-31, 01:23:05,VALID,999.998,VALID,0,VALID,67.1025,VALID,0.112286,VALID,26.3931,VALID,190,VALID,2.00078,
2011-08-31, 01:24:05,VALID,999.961,VALID,0,VALID,67.3695,VALID,0,VALID,26.3756,VALID,211,VALID,1.80664,
2011-08-31, 01:25:05,VALID,999.948,VALID,0,VALID,67.3543,VALID,0,VALID,26.3365,VALID,185,VALID,1.74453,
2011-08-31, 01:26:05,VALID,999.964,VALID,0,VALID,67.6061,VALID,0,VALID,26.317,VALID,191,VALID,1.23516,
2011-08-31, 01:27:05,VALID,999.942,VALID,0,VALID,67.6824,VALID,0,VALID,26.2779,VALID,193,VALID,1.55156,
2011-08-31, 01:28:05,VALID,999.917,VALID,0,VALID,67.6061,VALID,0,VALID,26.2779,VALID,204,VALID,1.25078,
2011-08-31, 01:29:05,VALID,999.938,VALID,0,VALID,68.0791,VALID,0,VALID,26.2584,VALID,205,VALID,0.785547,
2011-08-31, 01:30:05,VALID,999.898,VALID,0,VALID,68.102,VALID,0,VALID,26.1998,VALID,202,VALID,1.01328,
2011-08-31, 01:31:05,VALID,999.931,VALID,0,VALID,68.0867,VALID,0,VALID,26.1803,VALID,199,VALID,0.742969,
2011-08-31, 01:32:05,VALID,999.872,VALID,0,VALID,67.9418,VALID,0,VALID,26.1588,VALID,211,VALID,0.284766,
2011-08-31, 01:33:05,VALID,999.851,VALID,0,VALID,68.3385,VALID,0,VALID,26.1803,VALID,240,VALID,0.934766,
2011-08-31, 01:34:05,VALID,999.862,VALID,0,VALID,68.1554,VALID,0,VALID,26.1607,VALID,232,VALID,1.24688,
2011-08-31, 01:35:05,VALID,999.861,VALID,0,VALID,68.4301,VALID,0,VALID,26.1412,VALID,215,VALID,0.932813,
2011-08-31, 01:36:05,VALID,999.833,VALID,0,VALID,68.3614,VALID,0,VALID,26.1217,VALID,221,VALID,1.10273,
2011-08-31, 01:37:05,VALID,999.813,VALID,0,VALID,68.659,VALID,0,VALID,26.1412,VALID,257,VALID,0.601172,
2011-08-31, 01:38:05,VALID,999.819,VALID,0,VALID,68.9107,VALID,0,VALID,26.0826,VALID,251,VALID,0.718359,
2011-08-31, 01:39:05,VALID,999.786,VALID,0,VALID,68.8344,VALID,0,VALID,26.0631,VALID,263,VALID,0.933984,
2011-08-31, 01:40:05,VALID,999.733,VALID,0,VALID,69.4524,VALID,0,VALID,26.0436,VALID,269,VALID,0.514453,
2011-08-31, 01:41:05,VALID,999.747,VALID,0,VALID,69.1396,VALID,0,VALID,26.0045,VALID,224,VALID,1.86211,
2011-08-31, 01:42:05,VALID,999.726,VALID,0,VALID,69.4448,VALID,0,VALID,26.0045,VALID,209,VALID,1.00937,
2011-08-31, 01:43:05,VALID,999.703,VALID,0,VALID,69.4372,VALID,0,VALID,25.9635,VALID,208,VALID,0.360156,
2011-08-31, 01:44:05,VALID,999.679,VALID,0,VALID,69.7347,VALID,0,VALID,25.944,VALID,208,VALID,0.594922,
2011-08-31, 01:45:05,VALID,999.693,VALID,0,VALID,71.8252,VALID,0,VALID,25.9069,VALID,132,VALID,1.05859,
2011-08-31, 01:46:05,VALID,999.675,VALID,0,VALID,73.3664,VALID,0,VALID,25.8093,VALID,132,VALID,0.780859,
2011-08-31, 01:47:05,VALID,999.64,VALID,0,VALID,74.1446,VALID,0,VALID,25.6531,VALID,132,VALID,0.866406,
2011-08-31, 01:48:05,VALID,999.668,VALID,0,VALID,74.549,VALID,0,VALID,25.5164,VALID,129,VALID,1.20586,
2011-08-31, 01:49:05,VALID,999.66,VALID,0,VALID,76.197,VALID,0,VALID,25.3797,VALID,126,VALID,1.78477,
2011-08-31, 01:50:05,VALID,999.642,VALID,0,VALID,77.7611,VALID,0,VALID,25.2236,VALID,115,VALID,1.46719,
2011-08-31, 01:51:05,VALID,999.645,VALID,0,VALID,78.7606,VALID,0,VALID,25.0479,VALID,114,VALID,1.49336,
2011-08-31, 01:52:05,VALID,999.607,VALID,0,VALID,79.8669,VALID,0,VALID,24.9112,VALID,107,VALID,1.44727,
2011-08-31, 01:53:05,VALID,999.586,VALID,0,VALID,80.8053,VALID,0,VALID,24.7941,VALID,93,VALID,1.29141,
2011-08-31, 01:54:05,VALID,999.608,VALID,0,VALID,81.6064,VALID,0,VALID,24.677,VALID,101,VALID,1.38281,
2011-08-31, 01:55:05,VALID,999.602,VALID,0,VALID,81.8353,VALID,0,VALID,24.5794,VALID,111,VALID,0.369141,
2011-08-31, 01:56:05,VALID,999.62,VALID,0,VALID,82.2168,VALID,0,VALID,24.5404,VALID,120,VALID,0.85625,
2011-08-31, 01:57:05,VALID,999.641,VALID,0,VALID,82.4533,VALID,0,VALID,24.4818,VALID,133,VALID,1.2082,
2011-08-31, 01:58:05,VALID,999.65,VALID,0,VALID,82.8577,VALID,0,VALID,24.4428,VALID,121,VALID,0.975,
2011-08-31, 01:59:05,VALID,999.628,VALID,0,VALID,83.5062,VALID,0,VALID,24.4037,VALID,94,VALID,0.914844,
2011-08-31, 02:00:05,VALID,999.611,VALID,0,VALID,83.8419,VALID,0,VALID,24.3452,VALID,81,VALID,1.03477,
2011-08-31, 02:01:05,VALID,999.625,VALID,0,VALID,83.9411,VALID,0,VALID,24.3062,VALID,69,VALID,1.25078,
2011-08-31, 02:02:05,VALID,999.642,VALID,0,VALID,84.0479,VALID,0,VALID,24.2671,VALID,73,VALID,0.995313,
2011-08-31, 02:03:05,VALID,999.632,VALID,0,VALID,84.2539,VALID,0,VALID,24.2671,VALID,73,VALID,0.958203,
2011-08-31, 02:04:05,VALID,999.627,VALID,0,VALID,84.5057,VALID,0,VALID,24.2476,VALID,73,VALID,0.776953,
2011-08-31, 02:05:05,VALID,999.637,VALID,0,VALID,84.7269,VALID,0,VALID,24.2086,VALID,73,VALID,0.791797,
2011-08-31, 02:06:05,VALID,999.605,VALID,0,VALID,84.8643,VALID,0,VALID,24.2086,VALID,53,VALID,0.903516,
2011-08-31, 02:07:05,VALID,999.588,VALID,0,VALID,84.5362,VALID,0,VALID,24.1696,VALID,30,VALID,1.03125,
2011-08-31, 02:08:05,VALID,999.607,VALID,0,VALID,84.582,VALID,0,VALID,24.111,VALID,20,VALID,0.855859,
2011-08-31, 02:09:05,VALID,999.566,VALID,0,VALID,84.7803,VALID,0,VALID,24.072,VALID,20,VALID,0.307422,
2011-08-31, 02:10:05,VALID,999.575,VALID,0,VALID,85.0092,VALID,0,VALID,24.0525,VALID,20,VALID,0.0117188,
2011-08-31, 02:11:05,VALID,999.585,VALID,0,VALID,85.1847,VALID,0,VALID,24.0134,VALID,20,VALID,0.160156,
2011-08-31, 02:12:05,VALID,999.601,VALID,0,VALID,85.3144,VALID,0,VALID,23.9939,VALID,20,VALID,0.675391,
2011-08-31, 02:13:05,VALID,999.599,VALID,0,VALID,85.3755,VALID,0,VALID,23.9939,VALID,20,VALID,0.197656,
2011-08-31, 02:14:05,VALID,999.567,VALID,0,VALID,85.3831,VALID,0,VALID,24.0329,VALID,20,VALID,0.187109,
2011-08-31, 02:15:05,VALID,999.539,VALID,0,VALID,85.1542,VALID,0,VALID,24.0311,VALID,20,VALID,0.8375,
2011-08-31, 02:16:05,VALID,999.524,VALID,0,VALID,85.0245,VALID,0,VALID,24.072,VALID,12,VALID,1.06875,
2011-08-31, 02:17:05,VALID,999.617,VALID,0,VALID,85.2076,VALID,0,VALID,24.072,VALID,12,VALID,0.561719,
2011-08-31, 02:18:05,VALID,999.592,VALID,0,VALID,85.3602,VALID,0,VALID,24.0329,VALID,85,VALID,0.361719,
2011-08-31, 02:19:05,VALID,999.553,VALID,0,VALID,85.4517,VALID,0,VALID,23.9939,VALID,85,VALID,0.250391,
2011-08-31, 02:20:05,VALID,999.541,VALID,0,VALID,85.5586,VALID,0,VALID,23.9744,VALID,73,VALID,0.763281,
2011-08-31, 02:21:05,VALID,999.516,VALID,0,VALID,85.7874,VALID,0,VALID,23.9336,VALID,73,VALID,0.625781,
2011-08-31, 02:22:05,VALID,999.543,VALID,0,VALID,86.146,VALID,0,VALID,23.8945,VALID,29,VALID,0.768359,
2011-08-31, 02:23:05,VALID,999.554,VALID,0,VALID,86.558,VALID,0,VALID,23.8378,VALID,23,VALID,0.73125,
2011-08-31, 02:24:05,VALID,999.56,VALID,0,VALID,86.97,VALID,0,VALID,23.7988,VALID,23,VALID,0.656641,
2011-08-31, 02:25:05,VALID,999.551,VALID,0,VALID,87.3286,VALID,0,VALID,23.7597,VALID,23,VALID,1.01563,
2011-08-31, 02:26:05,VALID,999.566,VALID,0,VALID,87.672,VALID,0,VALID,23.7402,VALID,44,VALID,1.22383,
2011-08-31, 02:27:05,VALID,999.563,VALID,0,VALID,87.8551,VALID,0,VALID,23.7402,VALID,44,VALID,1.01406,
2011-08-31, 02:28:05,VALID,999.507,VALID,0,VALID,87.9161,VALID,0,VALID,23.7402,VALID,32,VALID,0.832422,
2011-08-31, 02:29:05,VALID,999.52,VALID,0,VALID,88.0153,VALID,0,VALID,23.7207,VALID,22,VALID,0.645703,
2011-08-31, 02:30:05,VALID,999.545,VALID,0,VALID,88.0611,VALID,0,VALID,23.7207,VALID,22,VALID,0.219141,
2011-08-31, 02:31:05,VALID,999.534,VALID,0,VALID,88.1221,VALID,0,VALID,23.7012,VALID,22,VALID,0.180078,
2011-08-31, 02:32:05,VALID,999.532,VALID,0,VALID,88.1755,VALID,0,VALID,23.7012,VALID,22,VALID,0,
2011-08-31, 02:33:05,VALID,999.474,VALID,0,VALID,88.3281,VALID,0,VALID,23.6817,VALID,10,VALID,0.784375,
2011-08-31, 02:34:05,VALID,999.457,VALID,0,VALID,88.5646,VALID,0,VALID,23.7012,VALID,336,VALID,0.764844,
2011-08-31, 02:35:05,VALID,999.458,VALID,0,VALID,88.4883,VALID,0,VALID,23.7207,VALID,336,VALID,0.705859,
2011-08-31, 02:36:05,VALID,999.428,VALID,0,VALID,88.3129,VALID,0,VALID,23.7402,VALID,351,VALID,0.963672,
2011-08-31, 02:37:05,VALID,999.425,VALID,0,VALID,88.2594,VALID,0,VALID,23.7402,VALID,351,VALID,0.680469,
2011-08-31, 02:38:05,VALID,999.439,VALID,0,VALID,88.206,VALID,0,VALID,23.7402,VALID,351,VALID,0.297266,
2011-08-31, 02:39:05,VALID,999.465,VALID,0,VALID,88.1984,VALID,0,VALID,23.7189,VALID,351,VALID,0.00507812,
2011-08-31, 02:40:05,VALID,999.41,VALID,0,VALID,88.2671,VALID,0,VALID,23.7012,VALID,351,VALID,0.180859,
2011-08-31, 02:41:05,VALID,999.377,VALID,0,VALID,88.3281,VALID,0,VALID,23.7012,VALID,351,VALID,0,
2011-08-31, 02:42:05,VALID,999.375,VALID,0,VALID,88.4883,VALID,0,VALID,23.7012,VALID,351,VALID,0.303906,
2011-08-31, 02:43:05,VALID,999.373,VALID,0,VALID,88.557,VALID,0,VALID,23.6817,VALID,351,VALID,0.125,
2011-08-31, 02:44:05,VALID,999.358,VALID,0,VALID,88.6028,VALID,0,VALID,23.6817,VALID,351,VALID,0.223047,
2011-08-31, 02:45:05,VALID,999.357,VALID,0,VALID,88.618,VALID,0,VALID,23.6817,VALID,351,VALID,0.148047,
2011-08-31, 02:46:05,VALID,999.357,VALID,0,VALID,88.557,VALID,0,VALID,23.6817,VALID,351,VALID,0.207422,
2011-08-31, 02:47:05,VALID,999.374,VALID,0,VALID,88.4807,VALID,0,VALID,23.6622,VALID,351,VALID,0.637109,
2011-08-31, 02:48:05,VALID,999.363,VALID,0,VALID,88.4807,VALID,0,VALID,23.6817,VALID,351,VALID,0.217969,
2011-08-31, 02:49:05,VALID,999.382,VALID,0,VALID,88.4426,VALID,0,VALID,23.7012,VALID,351,VALID,0.084375,
2011-08-31, 02:50:05,VALID,999.391,VALID,0,VALID,88.3892,VALID,0,VALID,23.6817,VALID,351,VALID,0.0046875,
2011-08-31, 02:51:05,VALID,999.413,VALID,0,VALID,88.4349,VALID,0,VALID,23.6622,VALID,351,VALID,0.404297,
2011-08-31, 02:52:05,VALID,999.394,VALID,0,VALID,88.5417,VALID,0,VALID,23.6427,VALID,351,VALID,0.513281,
2011-08-31, 02:53:05,VALID,999.434,VALID,0,VALID,88.6714,VALID,0,VALID,23.6427,VALID,351,VALID,0.382422,
2011-08-31, 02:54:05,VALID,999.417,VALID,0,VALID,88.8774,VALID,0,VALID,23.6232,VALID,351,VALID,0.634766,
2011-08-31, 02:55:05,VALID,999.407,VALID,0,VALID,89.1216,VALID,0,VALID,23.6622,VALID,351,VALID,0.583203,
2011-08-31, 02:56:05,VALID,999.378,VALID,0,VALID,89.2132,VALID,0,VALID,23.6622,VALID,351,VALID,0.545313,
2011-08-31, 02:57:05,VALID,999.393,VALID,0,VALID,89.2513,VALID,0,VALID,23.6817,VALID,351,VALID,0.707422,
2011-08-31, 02:58:05,VALID,999.385,VALID,0,VALID,89.3352,VALID,0,VALID,23.7012,VALID,351,VALID,0.765625,
2011-08-31, 02:59:05,VALID,999.368,VALID,0,VALID,89.3734,VALID,0,VALID,23.6799,VALID,4,VALID,1.00781,
2011-08-31, 03:00:05,VALID,999.367,VALID,0,VALID,89.4497,VALID,0,VALID,23.6799,VALID,46,VALID,1.45781,
2011-08-31, 03:01:05,VALID,999.371,VALID,0,VALID,89.4268,VALID,0,VALID,23.6622,VALID,38,VALID,1.43828,
2011-08-31, 03:02:05,VALID,999.365,VALID,0,VALID,89.5336,VALID,0,VALID,23.6232,VALID,39,VALID,1.06211,
2011-08-31, 03:03:05,VALID,999.342,VALID,0,VALID,89.6786,VALID,0,VALID,23.5841,VALID,41,VALID,0.530078,
2011-08-31, 03:04:05,VALID,999.255,VALID,0,VALID,89.8617,VALID,0,VALID,23.5451,VALID,40,VALID,0.992578,
2011-08-31, 03:05:05,VALID,999.259,VALID,0,VALID,90.0066,VALID,0,VALID,23.5061,VALID,40,VALID,1.05586,
2011-08-31, 03:06:05,VALID,999.266,VALID,0,VALID,90.1745,VALID,0,VALID,23.4671,VALID,52,VALID,0.847656,
2011-08-31, 03:07:05,VALID,999.218,VALID,0,VALID,90.2737,VALID,0,VALID,23.4475,VALID,52,VALID,0.644922,
2011-08-31, 03:08:05,VALID,999.199,VALID,0,VALID,90.4263,VALID,0,VALID,23.4085,VALID,52,VALID,1.00156,
2011-08-31, 03:09:05,VALID,999.227,VALID,0,VALID,90.4949,VALID,0,VALID,23.4103,VALID,52,VALID,0.708203,
2011-08-31, 03:10:05,VALID,999.224,VALID,0,VALID,90.5483,VALID,0,VALID,23.3713,VALID,52,VALID,0.576172,
2011-08-31, 03:11:05,VALID,999.197,VALID,0,VALID,90.5865,VALID,0,VALID,23.3518,VALID,52,VALID,0.55,
2011-08-31, 03:12:05,VALID,999.239,VALID,0,VALID,90.6551,VALID,0,VALID,23.3518,VALID,52,VALID,0.586328,
2011-08-31, 03:13:05,VALID,999.263,VALID,0,VALID,90.7467,VALID,0,VALID,23.3518,VALID,52,VALID,0.264844,
2011-08-31, 03:14:05,VALID,999.263,VALID,0,VALID,90.762,VALID,0,VALID,23.3323,VALID,52,VALID,0,
2011-08-31, 03:15:05,VALID,999.26,VALID,0,VALID,90.7696,VALID,0,VALID,23.311,VALID,52,VALID,0.192188,
2011-08-31, 03:16:05,VALID,999.271,VALID,0,VALID,90.7543,VALID,0,VALID,23.2915,VALID,52,VALID,0,
2011-08-31, 03:17:05,VALID,999.298,VALID,0,VALID,90.8154,VALID,0,VALID,23.2719,VALID,52,VALID,0.332031,
2011-08-31, 03:18:05,VALID,999.31,VALID,0,VALID,90.8688,VALID,0,VALID,23.2915,VALID,52,VALID,0.427344,
2011-08-31, 03:19:05,VALID,999.309,VALID,0,VALID,90.8993,VALID,0,VALID,23.2719,VALID,52,VALID,0.494531,
2011-08-31, 03:20:05,VALID,999.285,VALID,0,VALID,90.9451,VALID,0,VALID,23.2524,VALID,48,VALID,0.764453,
2011-08-31, 03:21:05,VALID,999.282,VALID,0,VALID,90.9756,VALID,0,VALID,23.2524,VALID,43,VALID,0.707031,
2011-08-31, 03:22:05,VALID,999.296,VALID,0,VALID,90.9374,VALID,0,VALID,23.2329,VALID,35,VALID,0.965234,
2011-08-31, 03:23:05,VALID,999.291,VALID,0,VALID,90.8993,VALID,0,VALID,23.2117,VALID,30,VALID,0.638281,
2011-08-31, 03:24:05,VALID,999.307,VALID,0,VALID,90.8535,VALID,0,VALID,23.2134,VALID,27,VALID,0.683594,
2011-08-31, 03:25:05,VALID,999.331,VALID,0,VALID,90.8459,VALID,0,VALID,23.1939,VALID,27,VALID,0.235156,
2011-08-31, 03:26:05,VALID,999.3,VALID,0,VALID,90.8306,VALID,0,VALID,23.1744,VALID,27,VALID,0.461719,
2011-08-31, 03:27:05,VALID,999.335,VALID,0,VALID,90.9146,VALID,0,VALID,23.1939,VALID,27,VALID,0.451562,
2011-08-31, 03:28:05,VALID,999.3,VALID,0,VALID,90.9603,VALID,0,VALID,23.1939,VALID,27,VALID,0.676172,
2011-08-31, 03:29:05,VALID,999.295,VALID,0,VALID,90.9909,VALID,0,VALID,23.2134,VALID,23,VALID,0.879297,
2011-08-31, 03:30:05,VALID,999.298,VALID,0,VALID,91.0214,VALID,0,VALID,23.2329,VALID,23,VALID,0.910937,
2011-08-31, 03:31:05,VALID,999.355,VALID,0,VALID,90.968,VALID,0,VALID,23.2312,VALID,23,VALID,0.651172,
2011-08-31, 03:32:05,VALID,999.356,VALID,0,VALID,90.9146,VALID,0,VALID,23.2932,VALID,23,VALID,0.574219,
2011-08-31, 03:33:05,VALID,999.316,VALID,0,VALID,90.8535,VALID,0,VALID,23.2719,VALID,23,VALID,0.817187,
2011-08-31, 03:34:05,VALID,999.353,VALID,0,VALID,90.7772,VALID,0,VALID,23.311,VALID,23,VALID,0.663281,
2011-08-31, 03:35:05,VALID,999.367,VALID,0,VALID,90.678,VALID,0,VALID,23.311,VALID,23,VALID,0.369141,
2011-08-31, 03:36:05,VALID,999.358,VALID,0,VALID,90.5254,VALID,0,VALID,23.35,VALID,23,VALID,0.265234,
2011-08-31, 03:37:05,VALID,999.362,VALID,0,VALID,90.4339,VALID,0,VALID,23.3695,VALID,23,VALID,0.544531,
2011-08-31, 03:38:05,VALID,999.373,VALID,0,VALID,90.3042,VALID,0,VALID,23.3695,VALID,23,VALID,0.524609,
2011-08-31, 03:39:05,VALID,999.429,VALID,0,VALID,90.2126,VALID,0,VALID,23.389,VALID,23,VALID,0.460547,
2011-08-31, 03:40:05,VALID,999.393,VALID,0,VALID,90.1745,VALID,0,VALID,23.3695,VALID,23,VALID,0.891797,
2011-08-31, 03:41:05,VALID,999.394,VALID,0,VALID,90.0753,VALID,0,VALID,23.3695,VALID,23,VALID,1.32305,
2011-08-31, 03:42:05,VALID,999.414,VALID,0,VALID,90.06,VALID,0,VALID,23.4085,VALID,23,VALID,1.5082,
2011-08-31, 03:43:05,VALID,999.475,VALID,0,VALID,90.0753,VALID,0,VALID,23.3677,VALID,24,VALID,1.21797,
2011-08-31, 03:44:05,VALID,999.484,VALID,0,VALID,90.0677,VALID,0,VALID,23.389,VALID,24,VALID,0.779688,
2011-08-31, 03:45:05,VALID,999.531,VALID,0,VALID,90.0677,VALID,0,VALID,23.389,VALID,24,VALID,0.39375,
2011-08-31, 03:46:05,VALID,999.541,VALID,0,VALID,90.0295,VALID,0,VALID,23.389,VALID,24,VALID,0.301953,